Date,TemperatureHighF,TemperatureAvgF,TemperatureLowF,DewpointHighF,DewpointAvgF,DewpointLowF,HumidityHigh,HumidityAvg,HumidityLow,PressureMaxIn,PressureMinIn,WindSpeedMaxMPH,WindSpeedAvgMPH,GustSpeedMaxMPH,PrecipitationSumIn
2013-2-1,54.3,46.1,39.4,30.4,28.0,25.0,65,50,35,29.91,29.53,16,8,25,0.02
2013-2-2,49.1,44.3,40.5,42.9,37.7,24.4,93,78,43,29.53,29.24,17,9,26,0.46
2013-2-3,40.5,34.7,30.7,37.2,32.3,25.3,97,91,80,29.97,29.38,13,7,24,0.56
2013-2-4,37.6,33.4,27.7,27.9,25.2,21.7,81,72,60,30.00,29.94,8,4,13,0.00
2013-2-5,47.3,40.2,33.4,34.8,29.1,26.6,77,65,45,29.97,29.62,9,5,15,0.00
2013-2-6,46.2,39.9,34.3,38.0,33.8,27.0,91,79,69,29.62,29.38,8,3,10,0.02
2013-2-7,38.8,35.6,33.3,36.7,29.6,24.3,94,79,60,29.68,29.35,14,8,22,0.05
2013-2-8,40.8,35.5,30.4,30.3,24.7,18.9,86,66,45,29.85,29.68,9,5,13,0.00
2013-2-9,32.4,30.9,28.4,28.1,24.7,19.5,89,78,64,29.97,29.83,8,5,13,0.01
2013-2-10,32.7,30.2,26.1,29.7,27.2,21.8,94,88,81,29.91,29.80,8,3,13,0.03
2013-2-11,30.9,25.7,23.0,26.4,22.5,19.5,94,88,77,29.97,29.88,7,3,12,0.00
2013-2-12,37.6,33.6,23.8,31.4,26.7,21.0,91,76,65,29.88,29.77,8,5,14,0.02
2013-2-13,47.7,40.1,35.4,36.6,32.1,27.9,79,73,59,30.00,29.83,7,4,12,0.07
2013-2-14,40.5,38.8,37.0,39.4,37.0,31.8,98,93,79,30.09,30.00,7,2,9,0.37
2013-2-15,46.6,40.8,37.2,43.1,38.0,36.1,98,90,73,30.09,30.00,6,2,10,0.00
2013-2-16,46.9,40.2,35.4,37.8,33.7,27.8,94,78,62,30.18,30.06,8,5,13,0.00
2013-2-17,38.1,36.0,32.9,31.0,28.4,26.1,85,74,64,30.21,30.12,6,3,10,0.00
2013-2-18,38.5,34.2,30.9,26.2,23.8,21.2,76,66,57,30.18,30.09,6,3,11,0.00
2013-2-19,42.6,35.5,27.5,29.8,24.4,19.1,87,66,43,30.09,29.85,6,2,10,0.00
2013-2-20,43.3,36.9,30.5,30.8,24.0,17.4,83,61,40,30.06,29.88,13,6,19,0.00
2013-2-21,37.6,32.4,26.6,26.5,21.8,19.0,84,65,47,30.06,29.88,9,5,13,0.00
2013-2-22,35.2,32.6,29.7,34.2,30.9,26.7,97,93,85,29.88,29.71,8,4,13,0.18
2013-2-23,46.2,39.1,34.0,43.9,36.5,33.5,98,91,76,29.80,29.65,16,6,31,0.26
2013-2-24,47.8,45.0,42.1,42.7,39.0,35.7,89,80,72,29.91,29.77,21,10,30,0.20
2013-2-25,52.5,46.8,39.7,45.0,40.6,36.8,91,79,65,30.09,29.88,13,4,15,0.00
2013-2-26,48.7,46.1,43.5,44.2,42.6,41.6,93,88,80,30.15,30.03,7,3,10,0.17
2013-2-27,45.1,42.9,40.5,41.7,40.3,37.8,95,90,84,30.30,30.12,7,2,10,0.35
2013-2-28,50.4,40.7,33.8,39.5,33.8,29.1,88,77,56,30.36,30.18,7,2,13,0.00